[[{"header":{"parameterUnit":"m.s-1","parameterCategory":2,"la1":30.2991,"la2":30.254,"lo1":-89.0895,"lo2":-89.0444,"dy":0.0017,"dx":0.0017,"nx":28,"ny":28,"refTime":"2024-06-30T09:00:00:Z","depth":"0","parameterNumber":2,"parameterNumberName":"U-component_of_CURRENTS"},"data":[0,0,0,0,0,0,0,0,0,0,0,0,0,0,0,0,0,0,0,0,0,0,0,0,0,0,0,0,0,0,0,0,0,0,0,0,0,0,0,0,0,0,0,0,0,0,0,0,0,0,0,0,0,0,0,0,0,0,0.3384,0.3384,0,0.3366,0.3365,0.3365,0.3341,0.3341,0.3341,0.3341,0.3325,0.3325,0.3324,0,0,0,0,0,0,0,0,0,0,0,0,0,0.3354,0.3355,0.3384,0.3384,0.3385,0.3366,0.3365,0.3364,0.3341,0.3341,0.3341,0.3341,0.3325,0.3325,0.3324,0,0,0,0,0,0,0,0,0,0,0,0,0,0.3351,0.3355,0.3384,0.3374,0.3373,0.3366,0.3365,0.3364,0.3341,0.3341,0.3341,0.3341,0.3325,0.3325,0.3324,0.3321,0,0,0.3322,0.3322,0,0,0,0,0,0,0,0,0.3351,0.3352,0.3375,0.3374,0.3373,0.3359,0.3349,0.3351,0.3341,0.3349,0.3341,0.3341,0.3339,0.3338,0.3329,0.332,0.332,0.3322,0.3322,0.3322,0.3322,0,0,0,0,0,0,0,0.3351,0.3352,0.3373,0.3375,0.3374,0.3354,0.3354,0.3348,0.3342,0.3349,0.3348,0.3352,0.3338,0.3329,0.3328,0.3319,0.3322,0.3322,0.3321,0.3321,0.3378,0.338,0,0,0,0,0,0,0.3364,0.3353,0.3374,0.3373,0.3366,0.3355,0.3354,0.3361,0.3342,0.334,0.3352,0.3351,0.333,0.3329,0.3328,0.3361,0.3322,0.3321,0.3321,0.3376,0.3378,0.338,0,0,0,0,0,0,0.3363,0.3366,0.3375,0.3365,0.3365,0.3357,0.3363,0.336,0.3355,0.3345,0.3342,0.335,0.333,0.3328,0.3341,0.3359,0.3321,0.332,0.3374,0.3377,0.3379,0.3404,0,0,0,0,0,0,0.3363,0.3366,0.3371,0.3366,0.3366,0.337,0.3363,0.336,0.3359,0.3358,0.3343,0.3341,0.333,0.3343,0.3341,0.3358,0.332,0.3371,0.3375,0.3378,0.3401,0.3408,0.3413,0,0,0,0,0,0.3362,0.3361,0.3371,0.3374,0.3375,0.3371,0.3368,0.3359,0.3359,0.3354,0.3361,0.3341,0.3364,0.3343,0.3341,0.3358,0.337,0.3374,0.3378,0.3398,0.3406,0.3413,0,0,0,0,0,0,0.3333,0.3359,0.337,0.3374,0.3377,0.3368,0.3361,0.3363,0.3362,0.3363,0.3355,0.3354,0.3382,0.337,0.3347,0.339,0.3368,0.3372,0.3384,0.3392,0.3398,0.3404,0.3319,0,0,0,0,0,0.3337,0.335,0.3366,0.3366,0.3371,0.337,0.3368,0.3367,0.3368,0.3366,0.3363,0.3372,0.3397,0.3393,0.3408,0.3414,0.346,0.343,0.3436,0.3441,0.3448,0.356,0.3577,0.3394,0.3394,0.3394,0,0,0.3319,0.334,0.3342,0.3362,0.3362,0.3363,0.3367,0.3364,0.3366,0.3366,0.3366,0.3395,0.341,0.3432,0.3442,0.3418,0.3518,0.3446,0.345,0.3455,0.3567,0.3585,0.3601,0.3397,0.3397,0.3396,0,0,0.3291,0.3317,0.3318,0.3329,0.3345,0.3353,0.3357,0.3361,0.3366,0.3378,0.34,0.3442,0.3441,0.3472,0.3485,0.3534,0.3559,0.3537,0.3551,0.366,0.3676,0.3691,0.3772,0.3794,0.3524,0.3524,0.3524,0,0.3268,0.3279,0.3312,0.3318,0.3323,0.3351,0.3346,0.3357,0.3366,0.3391,0.338,0.3463,0.3466,0.3532,0.3547,0.3546,0.3607,0.3516,0.3669,0.3684,0.3699,0.3778,0.3802,0.3526,0.3525,0.3525,0.3525,0,0.3244,0.3252,0.325,0.3277,0.329,0.3287,0.3321,0.3343,0.3363,0.3388,0.3463,0.3494,0.3549,0.3559,0.3557,0.3666,0.3677,0.3676,0.3647,0.3719,0.3798,0.3822,0.3528,0.3527,0.3527,0.3526,0,0,0.3191,0.3226,0.3226,0.3225,0.327,0.3268,0.3307,0.3352,0.3386,0.3429,0.3485,0.3549,0.3599,0.362,0.3649,0.3723,0.3868,0.3735,0.374,0.3809,0.4108,0.4109,0.4135,0.3904,0.3908,0.3911,0.4121,0,0.3156,0.3151,0.319,0.3177,0.3172,0.3233,0.3264,0.3319,0.3377,0.344,0.3529,0.3593,0.3613,0.365,0.374,0.3839,0.3934,0.3811,0.4033,0.4039,0.4028,0.4165,0.394,0.4109,0.4145,0.4149,0.4151,0,0.3118,0.3123,0.3107,0.3131,0.3137,0.3146,0.3222,0.3258,0.3384,0.3437,0.3555,0.3626,0.3761,0.3755,0.3996,0.3923,0.4026,0.4097,0.4107,0.4116,0.4087,0.4045,0.4151,0.3916,0.4189,0.4186,0.4183,0,0.305,0.3059,0.3044,0.305,0.3092,0.3111,0.315,0.326,0.3306,0.3457,0.3517,0.3693,0.3781,0.3955,0.4119,0.4075,0.4377,0.4333,0.4439,0.4438,0.4295,0.4275,0.4193,0.4526,0.4526,0.4525,0.4525,0,0.2993,0.2973,0.3007,0.2993,0.2989,0.3052,0.3082,0.3164,0.3286,0.3365,0.3518,0.3625,0.3841,0.4029,0.4167,0.4399,0.444,0.4484,0.4516,0.4297,0.4276,0.4101,0.4013,0.4533,0.4531,0.453,0.4528,0,0.2907,0.2931,0.2905,0.2939,0.295,0.295,0.302,0.3059,0.3194,0.331,0.3366,0.3604,0.3866,0.4082,0.4366,0.4458,0.453,0.4736,0.4456,0.4451,0.4297,0.4221,0.4203,0.4101,0.488,0.4882,0.4883,0,0.2857,0.2839,0.285,0.2837,0.2846,0.2861,0.2884,0.3003,0.3062,0.3306,0.3364,0.3644,0.3835,0.4254,0.4476,0.4751,0.4587,0.4693,0.4571,0.4295,0.4234,0.4098,0.4001,0.4385,0.4382,0.438,0.4378,0,0.2759,0.2771,0.2755,0.2739,0.274,0.2735,0.2786,0.2812,0.2989,0.3127,0.3339,0.3512,0.3909,0.4108,0.4468,0.4606,0.4398,0.4657,0.4439,0.3918,0.3697,0.3607,0.4222,0.4358,0.436,0.4361,0.4362,0.4363,0.2685,0.2655,0.2648,0.2623,0.2616,0.2602,0.2586,0.2688,0.2792,0.2996,0.3235,0.3472,0.3718,0.4191,0.4309,0.4263,0.4325,0.4121,0.4081,0.3991,0.3792,0.4371,0.45,0.4503,0.4505,0.4508,0.4509,0,0.2581,0.2564,0.2535,0.2489,0.2436,0.2481,0.251,0.2522,0.2625,0.2878,0.3091,0.3329,0.3492,0.3673,0.3754,0.3654,0.3537,0.353,0.3201,0.3163,0.3717,0.3584,0.3434,0.3434,0.3434,0.3435,0.3435,0.3435,0.2522,0.2459,0.2446,0.2323,0.2291,0.2227,0.2226,0.2305,0.2447,0.2638,0.2787,0.2978,0.3111,0.3138,0.302,0.2996,0.2743,0.2674,0.271,0.2954,0.3001,0.3045,0.2892,0.26,0.2599,0.1983,0.1978,0.1973]},{"header":{"parameterUnit":"m.s-1","parameterCategory":2,"la1":30.2991,"la2":30.254,"lo1":-89.0895,"lo2":-89.0444,"dy":0.0017,"dx":0.0017,"nx":28,"ny":28,"refTime":"2024-06-30T09:00:00:Z","depth":"0","parameterNumber":3,"parameterNumberName":"V-component_of_CURRENTS"},"data":[0,0,0,0,0,0,0,0,0,0,0,0,0,0,0,0,0,0,0,0,0,0,0,0,0,0,0,0,0,0,0,0,0,0,0,0,0,0,0,0,0,0,0,0,0,0,0,0,0,0,0,0,0,0,0,0,0,0,0.106,0.106,0,0.1056,0.1056,0.1055,0.1014,0.1014,0.1013,0.1012,0.0921,0.0919,0.0917,0,0,0,0,0,0,0,0,0,0,0,0,0,0.0986,0.0987,0.106,0.106,0.1061,0.1056,0.1056,0.1055,0.1014,0.1014,0.1013,0.1012,0.0921,0.0919,0.0917,0,0,0,0,0,0,0,0,0,0,0,0,0,0.1001,0.0988,0.106,0.1042,0.1041,0.1056,0.1056,0.1055,0.1015,0.1014,0.1012,0.1011,0.0922,0.0919,0.0917,0.0922,0,0,0.0909,0.0907,0,0,0,0,0,0,0,0,0.1,0.1003,0.1045,0.1043,0.1042,0.1038,0.0996,0.1008,0.1015,0.1021,0.1012,0.1011,0.0955,0.0949,0.0947,0.0918,0.0914,0.0908,0.0907,0.0906,0.0905,0,0,0,0,0,0,0,0.0999,0.1003,0.1055,0.1045,0.1043,0.1019,0.102,0.0998,0.099,0.102,0.1018,0.1024,0.0953,0.095,0.0945,0.0912,0.0908,0.0906,0.0904,0.0903,0.0852,0.0853,0,0,0,0,0,0,0.101,0.1002,0.1055,0.1055,0.1022,0.1021,0.1022,0.1037,0.0992,0.0985,0.1024,0.1022,0.0955,0.0948,0.0941,0.0943,0.0906,0.0903,0.0902,0.0852,0.0852,0.0853,0,0,0,0,0,0,0.1009,0.1016,0.1055,0.103,0.1034,0.1024,0.1041,0.1038,0.1037,0.0996,0.0987,0.1028,0.0954,0.0945,0.0936,0.0939,0.0902,0.09,0.0852,0.0852,0.0853,0.0947,0,0,0,0,0,0,0.1007,0.1015,0.1024,0.1032,0.1036,0.1075,0.1043,0.1039,0.1044,0.104,0.0996,0.0987,0.0952,0.094,0.0933,0.0934,0.0897,0.0852,0.0852,0.0853,0.0943,0.095,0.0956,0,0,0,0,0,0.1004,0.1027,0.1024,0.1031,0.1051,0.1077,0.1077,0.1063,0.1045,0.1055,0.1028,0.0988,0.0937,0.094,0.0931,0.0931,0.0851,0.0852,0.0852,0.094,0.0949,0.0956,0,0,0,0,0,0,0.0997,0.1026,0.1023,0.1052,0.1067,0.1071,0.1081,0.1071,0.106,0.1053,0.1006,0.0996,0.0987,0.0948,0.0952,0.0915,0.0881,0.088,0.0951,0.0958,0.0965,0.0985,0.0895,0,0,0,0,0,0.1002,0.1029,0.1048,0.1072,0.1085,0.1084,0.109,0.1086,0.1081,0.1074,0.1047,0.101,0.0983,0.0964,0.0939,0.0927,0.0879,0.0914,0.0921,0.0927,0.0936,0.087,0.0871,0.0854,0.0854,0.0854,0,0,0.1007,0.1026,0.104,0.1072,0.1083,0.1113,0.1084,0.1108,0.1122,0.1066,0.1074,0.1041,0.0988,0.0978,0.0967,0.0943,0.0906,0.0927,0.0933,0.0939,0.087,0.0872,0.0873,0.0855,0.0855,0.0855,0,0,0.1038,0.105,0.1084,0.1104,0.1131,0.1136,0.1148,0.1161,0.1154,0.1163,0.1122,0.1096,0.1061,0.1023,0.0996,0.1021,0.0951,0.1004,0.1045,0.0981,0.0982,0.0982,0.0929,0.0924,0.0997,0.0997,0.0997,0,0.1036,0.1086,0.1097,0.1136,0.1158,0.1153,0.1194,0.1192,0.1196,0.1197,0.1175,0.1124,0.1079,0.1054,0.1061,0.1036,0.0993,0.1024,0.099,0.099,0.0988,0.0933,0.0926,0.1002,0.1001,0.1001,0.1,0,0.1096,0.1133,0.1159,0.1207,0.1231,0.1267,0.1277,0.1289,0.1279,0.1272,0.1257,0.1202,0.1167,0.1142,0.111,0.1079,0.1051,0.1016,0.0976,0.0996,0.0936,0.0927,0.1008,0.1007,0.1005,0.1004,0,0,0.1099,0.1183,0.119,0.1225,0.1273,0.13,0.1332,0.1357,0.1374,0.1351,0.1359,0.1302,0.1271,0.1239,0.1185,0.1126,0.1078,0.1075,0.1069,0.1032,0.0944,0.0943,0.0932,0.1038,0.1037,0.1036,0.0909,0,0.114,0.1223,0.1256,0.133,0.1375,0.1389,0.1423,0.1439,0.1438,0.1444,0.1376,0.1362,0.1306,0.1287,0.1225,0.1129,0.1058,0.1116,0.0922,0.0916,0.092,0.0923,0.0949,0.084,0.09,0.0898,0.0897,0,0.1185,0.1236,0.1317,0.1398,0.1419,0.1459,0.1511,0.154,0.1543,0.1539,0.1512,0.1466,0.1402,0.1336,0.1174,0.1217,0.109,0.0997,0.0989,0.095,0.0898,0.0826,0.0821,0.0635,0.0882,0.0883,0.0884,0,0.1182,0.1278,0.1343,0.137,0.1456,0.1491,0.1533,0.1566,0.1595,0.1596,0.1609,0.1532,0.1489,0.134,0.1181,0.1167,0.0995,0.0941,0.0811,0.0809,0.0775,0.0773,0.0576,0.0795,0.0796,0.0796,0.0796,0,0.1214,0.1263,0.1347,0.1381,0.1456,0.1511,0.1584,0.1611,0.1654,0.1697,0.1653,0.1658,0.1484,0.1379,0.121,0.1012,0.1011,0.0824,0.0776,0.0809,0.0812,0.0603,0.0535,0.0791,0.0792,0.0793,0.0794,0,0.1205,0.1261,0.1334,0.1426,0.1459,0.1509,0.162,0.1673,0.1711,0.1762,0.1765,0.1735,0.1626,0.1452,0.1217,0.1051,0.0773,0.0771,0.0838,0.0801,0.0507,0.0446,0.0243,0.0208,0.0599,0.0598,0.0597,0,0.1213,0.125,0.1349,0.1394,0.1441,0.1528,0.1599,0.1682,0.1746,0.1812,0.1837,0.1773,0.1757,0.1457,0.1189,0.0915,0.0747,0.0698,0.0662,0.0499,0.0394,0.0355,0.0339,0.0646,0.0646,0.0646,0.0646,0,0.1214,0.1243,0.13,0.139,0.1469,0.1571,0.1677,0.1733,0.1835,0.1898,0.1961,0.1962,0.1746,0.1528,0.1181,0.0966,0.0623,0.0683,0.0483,0.0398,0.0373,0.0316,0.0725,0.0644,0.0644,0.0644,0.0644,0.0644,0.1198,0.123,0.13,0.1386,0.1483,0.1599,0.1673,0.1801,0.1914,0.203,0.2051,0.2102,0.178,0.1353,0.1076,0.0557,0.0595,0.0365,0.0298,0.0267,0.0255,0.0679,0.0568,0.0568,0.0567,0.0567,0.0567,0,0.1173,0.122,0.1297,0.1403,0.1499,0.1569,0.1718,0.1801,0.1937,0.2089,0.218,0.2047,0.1656,0.1216,0.0554,0.0219,0.0127,0.002,-0.0053,-0.0055,0.0273,0.0297,0.0162,0.0162,0.0162,0.0162,0.0163,0.0163,0.1158,0.1207,0.1254,0.1387,0.1474,0.1596,0.1677,0.1818,0.1948,0.2083,0.2134,0.217,0.1776,0.0691,-0.0072,-0.0226,-0.0401,-0.0418,-0.0522,-0.0341,-0.0315,-0.029,-0.0289,-0.0544,-0.0545,-0.0796,-0.0799,-0.0802]}],[{"header":{"parameterUnit":"m.s-1","parameterCategory":2,"la1":30.2991,"la2":30.254,"lo1":-89.0895,"lo2":-89.0444,"dy":0.0017,"dx":0.0017,"nx":28,"ny":28,"refTime":"2024-06-30T09:00:00:Z","depth":"2","parameterNumber":2,"parameterNumberName":"U-component_of_CURRENTS"},"data":[0,0,0,0,0,0,0,0,0,0,0,0,0,0,0,0,0,0,0,0,0,0,0,0,0,0,0,0,0,0,0,0,0,0,0,0,0,0,0,0,0,0,0,0,0,0,0,0,0,0,0,0,0,0,0,0,0,0,0.344,0.344,0,0.344,0.3439,0.3439,0.3411,0.341,0.341,0.341,0.3408,0.3409,0.3409,0,0,0,0,0,0,0,0,0,0,0,0,0,0.3402,0.3403,0.344,0.344,0.3441,0.344,0.3439,0.3439,0.3411,0.341,0.341,0.3409,0.3408,0.3409,0.3409,0,0,0,0,0,0,0,0,0,0,0,0,0,0.3408,0.3403,0.344,0.343,0.3429,0.344,0.3439,0.3439,0.3411,0.341,0.341,0.3409,0.3408,0.3409,0.3409,0.3421,0,0,0.341,0.341,0,0,0,0,0,0,0,0,0.3408,0.3409,0.3431,0.3431,0.343,0.3429,0.3426,0.3434,0.3411,0.3413,0.341,0.3409,0.3419,0.3418,0.3413,0.3421,0.3421,0.341,0.3411,0.3411,0.3411,0,0,0,0,0,0,0,0.3407,0.3408,0.3435,0.3431,0.3431,0.3421,0.3421,0.3427,0.3415,0.3413,0.3412,0.3419,0.3417,0.3412,0.3412,0.3421,0.341,0.3411,0.3411,0.3411,0.3462,0.3463,0,0,0,0,0,0,0.3418,0.3408,0.3435,0.3436,0.3423,0.3423,0.3422,0.3426,0.3415,0.3414,0.342,0.3418,0.3412,0.3412,0.3412,0.346,0.3411,0.3411,0.3411,0.3461,0.3462,0.3463,0,0,0,0,0,0,0.3417,0.342,0.3435,0.3426,0.3427,0.3424,0.3428,0.3426,0.3425,0.3421,0.3419,0.3422,0.3411,0.3412,0.3426,0.3459,0.3411,0.3412,0.3459,0.3461,0.3463,0.3534,0,0,0,0,0,0,0.3416,0.342,0.3428,0.3426,0.3429,0.3445,0.3429,0.3427,0.3433,0.343,0.3423,0.3421,0.3411,0.3425,0.3426,0.3458,0.3412,0.3458,0.346,0.3462,0.3531,0.3538,0.3545,0,0,0,0,0,0.3414,0.3421,0.3428,0.3432,0.3439,0.3446,0.3446,0.3439,0.3433,0.3435,0.3434,0.3422,0.3439,0.3427,0.3427,0.346,0.3457,0.346,0.3462,0.3527,0.3537,0.3545,0,0,0,0,0,0,0.3408,0.3419,0.3426,0.3437,0.3447,0.3443,0.3448,0.3446,0.3445,0.3447,0.3435,0.3434,0.3468,0.3448,0.3435,0.348,0.3447,0.345,0.3497,0.3505,0.3512,0.3497,0.3412,0,0,0,0,0,0.3414,0.3422,0.3434,0.3445,0.3452,0.3454,0.3457,0.3457,0.3458,0.3457,0.3454,0.3456,0.3479,0.3477,0.3491,0.3506,0.3521,0.3527,0.3534,0.3541,0.3529,0.3598,0.3611,0.3472,0.3471,0.3471,0,0,0.3413,0.3425,0.3427,0.3445,0.3451,0.3461,0.3453,0.3465,0.3476,0.3459,0.3472,0.349,0.3492,0.3522,0.3533,0.3506,0.3592,0.3544,0.3549,0.3533,0.3602,0.3616,0.3628,0.3473,0.3473,0.3473,0,0,0.3412,0.343,0.3433,0.3446,0.3467,0.3474,0.3481,0.3488,0.3493,0.3512,0.3519,0.355,0.3556,0.3574,0.3582,0.3632,0.3641,0.3639,0.3649,0.3718,0.373,0.3741,0.3798,0.3813,0.3627,0.3627,0.3627,0,0.3413,0.3422,0.3436,0.3447,0.3462,0.3481,0.3491,0.3503,0.3515,0.3531,0.3522,0.3576,0.3583,0.3633,0.3647,0.3651,0.3684,0.362,0.3729,0.374,0.375,0.3805,0.3821,0.3631,0.3631,0.363,0.363,0,0.341,0.3426,0.3432,0.3454,0.3471,0.3487,0.3513,0.3534,0.3549,0.3565,0.3621,0.3639,0.3666,0.3686,0.3676,0.3753,0.3754,0.3748,0.3711,0.3769,0.3823,0.3838,0.3636,0.3635,0.3634,0.3633,0,0,0.3387,0.3422,0.3424,0.3434,0.348,0.3485,0.3528,0.3565,0.3588,0.3622,0.3658,0.371,0.3728,0.3738,0.3753,0.3796,0.3906,0.3793,0.3795,0.3853,0.406,0.3813,0.3806,0.3927,0.393,0.3932,0.4076,0,0.3382,0.3398,0.3423,0.3442,0.3454,0.3497,0.3527,0.3569,0.3608,0.3648,0.3701,0.3742,0.3748,0.3768,0.3823,0.3885,0.3946,0.3867,0.3988,0.3991,0.3769,0.3814,0.3482,0.356,0.4091,0.4094,0.4096,0,0.3367,0.3384,0.3397,0.3436,0.3444,0.3461,0.3518,0.3552,0.363,0.3663,0.373,0.3766,0.3849,0.3837,0.3987,0.3939,0.4003,0.4046,0.4053,0.3798,0.377,0.3583,0.3567,0.4121,0.4119,0.4117,0.4116,0,0.3329,0.3364,0.3373,0.3385,0.3431,0.3449,0.3485,0.3556,0.3591,0.368,0.3723,0.3818,0.3878,0.3973,0.4063,0.4039,0.422,0.4203,0.4051,0.4036,0.3756,0.3709,0.4318,0.4318,0.4318,0.4317,0.4317,0,0.3308,0.3314,0.3351,0.3351,0.3369,0.3417,0.345,0.3504,0.3583,0.363,0.373,0.3788,0.3917,0.4026,0.4096,0.4108,0.4264,0.4047,0.4048,0.3769,0.3723,0.4201,0.4185,0.4323,0.4322,0.432,0.432,0,0.3257,0.3285,0.3291,0.3331,0.3347,0.3359,0.3425,0.3447,0.3545,0.3617,0.365,0.3797,0.3933,0.4057,0.4214,0.4123,0.4176,0.4157,0.3801,0.375,0.3942,0.3929,0.3969,0.3962,0.3955,0.395,0.3945,0,0.3231,0.3226,0.3259,0.3261,0.3276,0.3307,0.3326,0.3416,0.3452,0.3612,0.3643,0.3802,0.3849,0.3966,0.3875,0.3903,0.4133,0.3584,0.3432,0.3904,0.3904,0.3901,0.3897,0.3137,0.3126,0.3117,0.311,0,0.317,0.318,0.3185,0.319,0.3201,0.3218,0.3263,0.3282,0.3393,0.3455,0.3549,0.359,0.3641,0.345,0.3427,0.3411,0.3523,0.3391,0.4035,0.3225,0.3116,0.3116,0.3141,0.3031,0.3039,0.3045,0.3049,0.3052,0.3113,0.3102,0.31,0.3101,0.3109,0.3104,0.3083,0.3128,0.3154,0.3102,0.3261,0.3154,0.3114,0.2836,0.2808,0.2789,0.3004,0.2877,0.2908,0.2948,0.2773,0.2652,0.2451,0.2456,0.2459,0.2463,0.2466,0,0.3002,0.3007,0.3006,0.2977,0.2934,0.2994,0.3005,0.2931,0.2891,0.2783,0.2712,0.2353,0.2184,0.2308,0.208,0.2001,0.2037,0.2008,0.2055,0.213,0.2198,0.199,0.1459,0.1457,0.1455,0.1453,0,0,0.2937,0.2892,0.2895,0.2796,0.2785,0.2687,0.2673,0.2572,0.248,0.2167,0.1972,0.1847,0.2059,0.1642,0.1615,0.1535,0.1836,0.1481,0.2271,0.2395,0.246,0.266,0.2415,0,0,0,0,0]},{"header":{"parameterUnit":"m.s-1","parameterCategory":2,"la1":30.2991,"la2":30.254,"lo1":-89.0895,"lo2":-89.0444,"dy":0.0017,"dx":0.0017,"nx":28,"ny":28,"refTime":"2024-06-30T09:00:00:Z","depth":"2","parameterNumber":3,"parameterNumberName":"V-component_of_CURRENTS"},"data":[0,0,0,0,0,0,0,0,0,0,0,0,0,0,0,0,0,0,0,0,0,0,0,0,0,0,0,0,0,0,0,0,0,0,0,0,0,0,0,0,0,0,0,0,0,0,0,0,0,0,0,0,0,0,0,0,0,0,-0.0413,-0.0412,0,-0.0396,-0.0396,-0.0396,-0.0409,-0.041,-0.041,-0.0411,-0.0441,-0.0441,-0.0442,0,0,0,0,0,0,0,0,0,0,0,0,0,-0.0467,-0.0466,-0.0413,-0.0412,-0.0412,-0.0396,-0.0396,-0.0396,-0.0409,-0.041,-0.041,-0.0411,-0.0441,-0.0441,-0.0442,0,0,0,0,0,0,0,0,0,0,0,0,0,-0.0448,-0.0466,-0.0413,-0.0415,-0.0415,-0.0396,-0.0396,-0.0396,-0.0409,-0.041,-0.041,-0.0411,-0.0441,-0.0441,-0.0442,-0.0434,0,0,-0.0444,-0.0444,0,0,0,0,0,0,0,0,-0.0449,-0.0446,-0.0415,-0.0415,-0.0415,-0.0404,-0.0426,-0.041,-0.0409,-0.0413,-0.0411,-0.0411,-0.0431,-0.0433,-0.043,-0.0435,-0.0437,-0.0444,-0.0444,-0.0445,-0.0445,0,0,0,0,0,0,0,-0.045,-0.0447,-0.0408,-0.0415,-0.0415,-0.0421,-0.0419,-0.0424,-0.0421,-0.0413,-0.0413,-0.0409,-0.0432,-0.0429,-0.0431,-0.0437,-0.0444,-0.0444,-0.0445,-0.0445,-0.0419,-0.0418,0,0,0,0,0,0,-0.0447,-0.0448,-0.0408,-0.0407,-0.0432,-0.042,-0.0418,-0.0408,-0.042,-0.0422,-0.0408,-0.0409,-0.0428,-0.043,-0.0432,-0.0383,-0.0445,-0.0445,-0.0446,-0.042,-0.0419,-0.0417,0,0,0,0,0,0,-0.0449,-0.0444,-0.0409,-0.0426,-0.0422,-0.0418,-0.0407,-0.0408,-0.0392,-0.0416,-0.0419,-0.039,-0.0429,-0.0431,-0.0416,-0.0386,-0.0446,-0.0446,-0.0421,-0.0419,-0.0418,-0.0311,0,0,0,0,0,0,-0.045,-0.0444,-0.0426,-0.0426,-0.0421,-0.0382,-0.0407,-0.0407,-0.0388,-0.0389,-0.0402,-0.0406,-0.0429,-0.0414,-0.0416,-0.0388,-0.0447,-0.0423,-0.042,-0.0418,-0.0316,-0.0306,-0.0297,0,0,0,0,0,-0.0452,-0.0425,-0.0426,-0.042,-0.04,-0.0381,-0.0378,-0.0379,-0.0386,-0.0369,-0.0376,-0.0405,-0.0404,-0.0413,-0.0416,-0.0387,-0.0424,-0.0421,-0.0419,-0.032,-0.0308,-0.0298,0,0,0,0,0,0,-0.0437,-0.0424,-0.0424,-0.0394,-0.0381,-0.0382,-0.036,-0.0365,-0.0356,-0.0353,-0.0384,-0.0387,-0.0368,-0.0391,-0.0401,-0.0376,-0.0421,-0.0419,-0.0345,-0.0334,-0.0325,-0.0307,-0.0447,0,0,0,0,0,-0.0425,-0.0403,-0.0394,-0.0368,-0.0357,-0.0355,-0.0344,-0.0343,-0.034,-0.0336,-0.0343,-0.0354,-0.0362,-0.0357,-0.037,-0.0345,-0.0377,-0.0332,-0.0323,-0.0315,-0.0303,-0.033,-0.0322,-0.0409,-0.0409,-0.0409,0,0,-0.0411,-0.0401,-0.0387,-0.0363,-0.0352,-0.0318,-0.035,-0.0321,-0.0292,-0.034,-0.0298,-0.0322,-0.035,-0.0328,-0.0321,-0.0339,-0.0304,-0.0312,-0.0304,-0.0297,-0.0327,-0.0318,-0.0311,-0.0408,-0.0408,-0.0408,0,0,-0.0369,-0.036,-0.0324,-0.0308,-0.0282,-0.028,-0.0266,-0.0251,-0.0242,-0.0208,-0.0243,-0.0241,-0.024,-0.0255,-0.0264,-0.021,-0.026,-0.0218,-0.0146,-0.0172,-0.0164,-0.0159,-0.0176,-0.0173,-0.0206,-0.0206,-0.0205,0,-0.0351,-0.0305,-0.031,-0.027,-0.0243,-0.0256,-0.0206,-0.0197,-0.0179,-0.0165,-0.018,-0.0181,-0.0205,-0.0188,-0.0168,-0.0187,-0.021,-0.0183,-0.0158,-0.0154,-0.015,-0.0169,-0.0167,-0.02,-0.0201,-0.0201,-0.0202,0,-0.0282,-0.0241,-0.0216,-0.0169,-0.0144,-0.0103,-0.0091,-0.0065,-0.0058,-0.0056,-0.0033,-0.0064,-0.0065,-0.0076,-0.01,-0.0081,-0.0108,-0.0148,-0.0184,-0.0134,-0.0158,-0.0158,-0.0192,-0.0194,-0.0196,-0.0197,0,0,-0.0252,-0.018,-0.0169,-0.0125,-0.0084,-0.0054,-0.0004,0.0036,0.0073,0.0074,0.0116,0.0099,0.0074,0.0061,0.0021,0.0004,0.0016,-0.0046,-0.005,-0.0057,-0.0032,-0.0058,-0.0061,-0.0021,-0.002,-0.002,-0.0057,0,-0.0191,-0.0096,-0.0077,0.0017,0.0071,0.0079,0.0128,0.0157,0.0171,0.0203,0.0166,0.0184,0.0127,0.0133,0.0107,0.0037,0.002,0.003,-0.0085,-0.0088,-0.0113,-0.006,-0.0072,-0.0106,-0.0057,-0.0057,-0.0057,0,-0.0121,-0.0068,0.0037,0.0122,0.0146,0.0196,0.0269,0.0312,0.0335,0.0345,0.0346,0.0311,0.0298,0.0233,0.015,0.016,0.0081,0.0017,0.0013,-0.0048,-0.0113,-0.0151,-0.0108,-0.0057,-0.0057,-0.0057,-0.0057,0,-0.0083,0.0016,0.0103,0.0133,0.022,0.0269,0.0315,0.0359,0.0403,0.0435,0.0463,0.0426,0.042,0.0321,0.0207,0.0179,0.0105,0.0041,-0.0058,-0.0062,-0.0112,-0.012,-0.0022,-0.0022,-0.0022,-0.0022,-0.0022,0,-0.0017,0.0053,0.0129,0.018,0.028,0.0323,0.0422,0.0458,0.0511,0.0576,0.0538,0.0576,0.044,0.0382,0.0253,0.0119,0.0141,-0.0029,-0.0067,-0.0074,-0.0078,-0.0076,-0.0082,-0.0023,-0.0023,-0.0023,-0.0022,0,0.0026,0.0076,0.0176,0.0272,0.0306,0.0381,0.0489,0.0551,0.0598,0.068,0.0697,0.069,0.0637,0.0495,0.0346,0.0189,0.0054,-0.0005,0.0005,-0.003,-0.0112,-0.0112,-0.0128,-0.0129,-0.013,-0.013,-0.0131,0,0.0065,0.0121,0.0233,0.0288,0.0339,0.0443,0.0513,0.0589,0.0656,0.0758,0.08,0.079,0.0805,0.0589,0.0332,0.0114,0.0091,-0.0075,-0.0141,-0.0085,-0.0121,-0.0119,-0.0118,-0.0164,-0.0165,-0.0166,-0.0166,0,0.013,0.0164,0.0239,0.0341,0.0426,0.0526,0.0634,0.0702,0.0801,0.0896,0.101,0.1039,0.0843,0.0625,0.0312,0.0151,-0.0042,-0.0098,-0.0032,-0.0135,-0.0122,-0.0157,-0.0153,-0.0173,-0.0172,-0.0172,-0.0171,-0.0171,0.0169,0.0223,0.0306,0.0402,0.0497,0.0609,0.0702,0.083,0.0981,0.1104,0.1112,0.1133,0.0858,0.0457,0.0221,-0.0053,-0.0063,-0.0211,-0.0207,-0.0203,-0.02,-0.019,-0.0252,-0.0251,-0.0251,-0.0251,-0.0251,0,0.0212,0.0267,0.0358,0.0476,0.0577,0.0621,0.0778,0.0894,0.1098,0.1158,0.1239,0.097,0.0736,0.0477,0.0047,-0.0216,-0.0225,-0.0274,-0.025,-0.0244,-0.0239,-0.0235,-0.0298,-0.0298,-0.0298,-0.0298,0,0,0.0239,0.0318,0.0359,0.0517,0.0604,0.0747,0.0843,0.1041,0.1139,0.1222,0.1186,0.1072,0.077,0.0437,0.0119,-0.0081,-0.0096,-0.0113,-0.0063,0.0007,0.0016,-0.0203,-0.0191,0,0,0,0,0]}],[{"header":{"parameterUnit":"m.s-1","parameterCategory":2,"la1":30.2991,"la2":30.254,"lo1":-89.0895,"lo2":-89.0444,"dy":0.0017,"dx":0.0017,"nx":28,"ny":28,"refTime":"2024-06-30T09:00:00:Z","depth":"4","parameterNumber":2,"parameterNumberName":"U-component_of_CURRENTS"},"data":[0,0,0,0,0,0,0,0,0,0,0,0,0,0,0,0,0,0,0,0,0,0,0,0,0,0,0,0,0,0,0,0,0,0,0,0,0,0,0,0,0,0,0,0,0,0,0,0,0,0,0,0,0,0,0,0,0,0,0.0557,0.0557,0,0.0587,0.0587,0.0587,0.0681,0.0683,0.0685,0.0687,0.0842,0.0844,0.0846,0,0,0,0,0,0,0,0,0,0,0,0,0,0.0566,0.0565,0.0557,0.0557,0.0558,0.0587,0.0587,0.0587,0.068,0.0683,0.0686,0.0688,0.0841,0.0844,0.0846,0,0,0,0,0,0,0,0,0,0,0,0,0,0.0575,0.0565,0.0557,0.0608,0.0613,0.0587,0.0587,0.0588,0.068,0.0683,0.0686,0.0689,0.084,0.0844,0.0847,0.0802,0,0,0.0856,0.0858,0,0,0,0,0,0,0,0,0.0574,0.0574,0.06,0.0605,0.061,0.0634,0.0647,0.0666,0.0679,0.0654,0.0687,0.0691,0.0782,0.079,0.0786,0.0809,0.0816,0.0857,0.0859,0.086,0.0861,0,0,0,0,0,0,0,0.0573,0.0573,0.0568,0.0601,0.0607,0.0625,0.063,0.065,0.0701,0.0656,0.0663,0.0667,0.0786,0.0782,0.0791,0.0818,0.0857,0.086,0.0861,0.0863,0.1029,0.1031,0,0,0,0,0,0,0.0568,0.0572,0.0567,0.0569,0.0601,0.0622,0.0628,0.0622,0.0699,0.0712,0.0664,0.0671,0.0775,0.0787,0.0797,0.0949,0.086,0.0863,0.0865,0.1026,0.1029,0.1032,0,0,0,0,0,0,0.0568,0.0567,0.0566,0.0573,0.0574,0.0619,0.0612,0.0621,0.0672,0.0703,0.072,0.0711,0.0778,0.0792,0.088,0.0948,0.0864,0.0867,0.1023,0.1027,0.1031,0.1125,0,0,0,0,0,0,0.0568,0.0566,0.0567,0.0572,0.0574,0.0582,0.061,0.062,0.0666,0.0677,0.0748,0.0762,0.0782,0.0875,0.0883,0.0951,0.087,0.102,0.1025,0.1029,0.1119,0.1131,0.1142,0,0,0,0,0,0.0568,0.0564,0.0567,0.0567,0.0571,0.0582,0.0585,0.0627,0.0665,0.0685,0.0756,0.0763,0.0911,0.0879,0.0888,0.0959,0.1018,0.1024,0.1029,0.1113,0.1129,0.1142,0,0,0,0,0,0,0.0579,0.0573,0.0577,0.0574,0.0589,0.0599,0.0622,0.0647,0.0711,0.0745,0.0785,0.0804,0.0906,0.0912,0.0876,0.102,0.0968,0.0976,0.103,0.1045,0.1056,0.1075,0.0873,0,0,0,0,0,0.0573,0.0569,0.0571,0.0573,0.0584,0.0608,0.0623,0.0652,0.07,0.0733,0.0804,0.0871,0.0921,0.097,0.101,0.1081,0.105,0.1135,0.1147,0.1157,0.1179,0.1173,0.1186,0.105,0.105,0.105,0,0,0.0573,0.0575,0.057,0.0575,0.0593,0.0613,0.0628,0.0666,0.0709,0.0738,0.086,0.0913,0.0946,0.1038,0.1085,0.1065,0.1177,0.1164,0.1172,0.119,0.118,0.1193,0.1205,0.1054,0.1053,0.1053,0,0,0.0574,0.0582,0.0578,0.0597,0.0628,0.0642,0.0664,0.0718,0.0775,0.0875,0.0909,0.0999,0.1107,0.1135,0.1158,0.1251,0.1231,0.1291,0.1381,0.1375,0.1386,0.1395,0.1353,0.1358,0.1307,0.1308,0.1308,0,0.0576,0.0578,0.0583,0.0601,0.0631,0.0664,0.0692,0.0733,0.0825,0.0891,0.0941,0.1115,0.1143,0.1221,0.1284,0.1277,0.1274,0.1322,0.1389,0.1397,0.1405,0.136,0.1364,0.1313,0.1312,0.1312,0.1311,0,0.0577,0.0594,0.0608,0.0636,0.0664,0.0702,0.0751,0.0833,0.0932,0.0992,0.1144,0.1202,0.1318,0.1339,0.136,0.1443,0.1421,0.1392,0.1347,0.1424,0.1372,0.1374,0.132,0.1319,0.1317,0.1316,0,0,0.0548,0.0593,0.0611,0.0637,0.0698,0.0725,0.0813,0.09,0.0972,0.1123,0.1228,0.1363,0.1445,0.1476,0.1505,0.1522,0.1567,0.1523,0.152,0.1473,0.1558,0.1442,0.1431,0.1574,0.1576,0.1577,0.1491,0,0.0557,0.0605,0.0628,0.0693,0.072,0.0793,0.0872,0.0967,0.1062,0.1175,0.128,0.1411,0.1475,0.1569,0.1597,0.1587,0.1585,0.1593,0.15,0.1496,0.1376,0.1434,0.1582,0.1492,0.1493,0.1493,0.1493,0,0.0552,0.0592,0.0658,0.0739,0.0764,0.0832,0.097,0.1043,0.1178,0.1279,0.1429,0.1501,0.1628,0.1631,0.1682,0.1707,0.1663,0.1621,0.1615,0.1481,0.1386,0.1406,0.1496,0.1496,0.1496,0.1496,0.1495,0,0.0529,0.0613,0.0678,0.0709,0.0805,0.0898,0.0992,0.1119,0.119,0.1375,0.1445,0.1594,0.1693,0.1702,0.169,0.1723,0.1645,0.1648,0.1472,0.1461,0.1545,0.1537,0.162,0.162,0.162,0.162,0.1621,0,0.0507,0.056,0.0703,0.0728,0.0862,0.0943,0.1072,0.1192,0.131,0.1375,0.1537,0.1572,0.173,0.1704,0.1677,0.1587,0.1644,0.15,0.1444,0.1584,0.1581,0.1544,0.1537,0.1617,0.1618,0.1618,0.1619,0,0.0451,0.0529,0.0601,0.0757,0.0841,0.0955,0.1138,0.1199,0.1351,0.1421,0.1509,0.1614,0.1632,0.1638,0.1606,0.1562,0.1468,0.1382,0.1502,0.1452,0.1294,0.1292,0.1247,0.1243,0.1239,0.1236,0.1233,0,0.0419,0.0456,0.0633,0.0713,0.0806,0.0986,0.1093,0.1258,0.129,0.1395,0.1396,0.1467,0.1514,0.1366,0.1399,0.1319,0.1282,0.1252,0.134,0.1312,0.1262,0.1267,0.1271,0.1227,0.1226,0.1225,0.1224,0,0.036,0.044,0.0498,0.0659,0.0797,0.0944,0.11,0.1096,0.1232,0.1335,0.1312,0.1319,0.1274,0.1285,0.122,0.1148,0.1318,0.1213,0.1222,0.1305,0.1286,0.1242,0.125,0.1211,0.1213,0.1214,0.1215,0,0.0332,0.0379,0.0468,0.0604,0.0742,0.0866,0.0958,0.1014,0.1077,0.1167,0.113,0.1158,0.1241,0.118,0.1089,0.1061,0.1079,0.1091,0.1108,0.1123,0.1125,0.1086,0.0911,0,0,0,0,0,0.0321,0.0366,0.0434,0.054,0.0634,0.0771,0.0927,0.099,0.1055,0.1021,0.109,0.1042,0.1015,0.1008,0.0955,0.1006,0.1057,0.094,0.1075,0.1137,0.1153,0.1168,0,0,0,0,0,0,0.0324,0.0377,0.0396,0.0438,0.0505,0.0644,0.0762,0.0835,0.0819,0.0892,0.0868,0.098,0.0939,0.1015,0.0925,0.0927,0.0997,0.0969,0.0967,0.1129,0.1143,0.1155,0.1176,0,0,0,0,0]},{"header":{"parameterUnit":"m.s-1","parameterCategory":2,"la1":30.2991,"la2":30.254,"lo1":-89.0895,"lo2":-89.0444,"dy":0.0017,"dx":0.0017,"nx":28,"ny":28,"refTime":"2024-06-30T09:00:00:Z","depth":"4","parameterNumber":3,"parameterNumberName":"V-component_of_CURRENTS"},"data":[0,0,0,0,0,0,0,0,0,0,0,0,0,0,0,0,0,0,0,0,0,0,0,0,0,0,0,0,0,0,0,0,0,0,0,0,0,0,0,0,0,0,0,0,0,0,0,0,0,0,0,0,0,0,0,0,0,0,0.0153,0.0154,0,0.012,0.0119,0.0118,0.0077,0.0077,0.0077,0.0077,-0.0052,-0.0055,-0.0058,0,0,0,0,0,0,0,0,0,0,0,0,0,0.0123,0.0123,0.0153,0.0154,0.0154,0.012,0.0119,0.0118,0.0077,0.0077,0.0077,0.0077,-0.0051,-0.0055,-0.0059,0,0,0,0,0,0,0,0,0,0,0,0,0,0.0111,0.0123,0.0153,0.0134,0.0133,0.012,0.0119,0.0118,0.0077,0.0077,0.0077,0.0077,-0.0049,-0.0054,-0.0059,-0.0089,0,0,-0.0075,-0.0077,0,0,0,0,0,0,0,0,0.0112,0.0112,0.0137,0.0135,0.0134,0.0108,0.0061,0.0046,0.0077,0.0091,0.0077,0.0077,-0.0003,-0.0012,-0.0026,-0.0095,-0.0101,-0.0075,-0.0078,-0.0081,-0.0082,0,0,0,0,0,0,0,0.0113,0.0113,0.0133,0.0137,0.0135,0.0107,0.0105,0.0058,0.0038,0.009,0.0088,0.0095,-0.0005,-0.0021,-0.0029,-0.0103,-0.0075,-0.008,-0.0083,-0.0085,-0.0238,-0.0239,0,0,0,0,0,0,0.0134,0.0114,0.0135,0.0133,0.013,0.0109,0.0106,0.0111,0.0041,0.0033,0.0095,0.0094,-0.0012,-0.0023,-0.0034,-0.0101,-0.008,-0.0085,-0.0088,-0.0237,-0.0238,-0.0239,0,0,0,0,0,0,0.0133,0.0136,0.0136,0.0128,0.0127,0.0111,0.0116,0.0111,0.01,0.0047,0.0036,0.0092,-0.0013,-0.0027,-0.0081,-0.0105,-0.0088,-0.0092,-0.0236,-0.0237,-0.0239,-0.0218,0,0,0,0,0,0,0.0132,0.0135,0.0144,0.0129,0.0128,0.0123,0.0116,0.011,0.0107,0.0105,0.004,0.0028,-0.0014,-0.0073,-0.0086,-0.0112,-0.0096,-0.0234,-0.0236,-0.0238,-0.0217,-0.0218,-0.0219,0,0,0,0,0,0.0131,0.0147,0.0145,0.0147,0.0141,0.0123,0.0119,0.0102,0.0108,0.0094,0.0054,0.003,-0.0094,-0.0078,-0.0092,-0.0121,-0.0233,-0.0236,-0.0238,-0.0217,-0.0218,-0.0219,0,0,0,0,0,0,0.0138,0.0145,0.0141,0.0159,0.014,0.0119,0.012,0.0109,0.007,0.0068,0.0019,0.0003,-0.006,-0.0088,-0.0068,-0.0171,-0.0169,-0.0174,-0.0148,-0.015,-0.0151,-0.0128,-0.01,0,0,0,0,0,0.0147,0.0156,0.0149,0.0158,0.0159,0.014,0.0135,0.0119,0.0089,0.0073,0.0028,-0.0023,-0.0082,-0.0111,-0.0169,-0.0216,-0.0226,-0.0245,-0.0246,-0.0247,-0.0239,-0.0272,-0.0275,-0.0247,-0.0247,-0.0247,0,0,0.015,0.0158,0.0161,0.016,0.0151,0.0146,0.0134,0.0126,0.0115,0.0063,0.0029,-0.0033,-0.0097,-0.0161,-0.019,-0.0185,-0.026,-0.025,-0.025,-0.0241,-0.0275,-0.0277,-0.028,-0.0248,-0.0248,-0.0248,0,0,0.0161,0.0172,0.0181,0.0172,0.0166,0.0153,0.0155,0.0129,0.0113,0.0067,0.0024,-0.0039,-0.0123,-0.0173,-0.0208,-0.0245,-0.0269,-0.0275,-0.0259,-0.0291,-0.0293,-0.0295,-0.0302,-0.0305,-0.027,-0.027,-0.027,0,0.0163,0.0182,0.0177,0.0183,0.0184,0.0162,0.0164,0.0143,0.0096,0.0078,0.0057,-0.007,-0.0127,-0.0194,-0.0219,-0.0247,-0.0262,-0.0246,-0.029,-0.0293,-0.0295,-0.0302,-0.0305,-0.0269,-0.0269,-0.0269,-0.0269,0,0.018,0.0192,0.02,0.0202,0.0193,0.0192,0.0172,0.0151,0.0126,0.0094,0.0019,-0.0062,-0.0133,-0.0174,-0.0214,-0.0268,-0.0272,-0.029,-0.028,-0.0296,-0.0303,-0.0306,-0.0268,-0.0268,-0.0268,-0.0268,0,0,0.0195,0.0209,0.0213,0.022,0.0208,0.0204,0.0189,0.0164,0.0157,0.0085,0.0059,-0.0059,-0.0102,-0.0144,-0.0205,-0.0244,-0.0281,-0.0276,-0.0278,-0.0268,-0.0339,-0.0332,-0.0335,-0.0312,-0.0313,-0.0313,-0.0333,0,0.0211,0.0235,0.0232,0.0242,0.0253,0.023,0.022,0.0188,0.0149,0.0112,0.0032,-0.0023,-0.0088,-0.0127,-0.0181,-0.0265,-0.0292,-0.0273,-0.0337,-0.0338,-0.0318,-0.0339,-0.0316,-0.0336,-0.0337,-0.0337,-0.0338,0,0.0241,0.025,0.0273,0.0274,0.0278,0.028,0.0266,0.025,0.0195,0.0161,0.0093,0.0028,-0.0052,-0.0096,-0.0219,-0.0208,-0.0268,-0.0323,-0.0325,-0.0325,-0.0337,-0.0322,-0.0345,-0.0344,-0.0343,-0.0343,-0.0343,0,0.0275,0.0287,0.0311,0.0312,0.0302,0.031,0.0308,0.0268,0.0266,0.0206,0.0187,0.0077,0.0034,-0.007,-0.0208,-0.021,-0.0335,-0.0343,-0.0382,-0.0381,-0.0388,-0.0386,-0.0407,-0.0407,-0.0407,-0.0407,-0.0407,0,0.0303,0.032,0.0337,0.0346,0.0375,0.0354,0.0375,0.0352,0.0325,0.0314,0.0226,0.0175,0.0036,-0.0066,-0.0185,-0.0303,-0.0313,-0.0377,-0.0391,-0.0379,-0.0376,-0.039,-0.0388,-0.0408,-0.0407,-0.0407,-0.0407,0,0.0331,0.0342,0.0372,0.0382,0.0397,0.042,0.0448,0.0449,0.0424,0.0408,0.0397,0.0268,0.0128,-0.0013,-0.0182,-0.0251,-0.0376,-0.041,-0.0375,-0.0388,-0.0394,-0.0391,-0.0426,-0.0426,-0.0426,-0.0426,-0.0426,0,0.0342,0.0365,0.0417,0.0442,0.0454,0.0493,0.0515,0.0507,0.0503,0.0441,0.0422,0.0306,0.0201,-0.0022,-0.0181,-0.0361,-0.0392,-0.0417,-0.0417,-0.0389,-0.0399,-0.0396,-0.0393,-0.0426,-0.0426,-0.0426,-0.0426,0,0.0352,0.0388,0.0405,0.0474,0.0515,0.0569,0.0597,0.0589,0.0559,0.0556,0.0443,0.0319,0.0168,-0.0026,-0.0157,-0.0303,-0.0384,-0.0417,-0.0418,-0.0417,-0.0389,-0.0399,-0.0396,-0.0426,-0.0426,-0.0426,-0.0426,0,0.036,0.0382,0.0428,0.0481,0.0544,0.0597,0.0616,0.0595,0.0592,0.0514,0.0466,0.0293,0.0202,0.0002,-0.0149,-0.0263,-0.0279,-0.0288,-0.0295,-0.0297,-0.0265,-0.0211,-0.0203,0,0,0,0,0,0.0371,0.0391,0.0431,0.0468,0.0534,0.0599,0.0638,0.0638,0.06,0.0539,0.051,0.0357,0.0146,0.0022,-0.0088,-0.0151,-0.0303,-0.0279,-0.0316,-0.0427,-0.0427,-0.0413,0,0,0,0,0,0,0.0369,0.041,0.042,0.0462,0.0496,0.0574,0.0616,0.0603,0.0555,0.0505,0.0374,0.0354,0.0123,0.0206,-0.0087,-0.0124,-0.0154,-0.0375,-0.0377,-0.0427,-0.0427,-0.0427,-0.0413,0,0,0,0,0]}]]